TimeCST,TemperatureF,Dew PointF,Humidity,Sea Level PressureIn,VisibilityMPH,Wind Direction,Wind SpeedMPH,Gust SpeedMPH,PrecipitationIn,Events,Conditions,WindDirDegrees,DateUTC
12:15 AM,39.2,28.4,65,30.12,10.0,NNW,8.1,-,N/A,,Clear,340,2012-12-11 06:15:00
12:35 AM,39.9,28.4,63,30.12,10.0,NNW,6.9,-,N/A,,Clear,340,2012-12-11 06:35:00
12:55 AM,39.2,28.4,65,30.12,10.0,North,8.1,-,N/A,,Clear,350,2012-12-11 06:55:00
1:15 AM,39.0,28.4,66,30.12,10.0,North,8.1,-,N/A,,Clear,350,2012-12-11 07:15:00
1:35 AM,38.7,28.2,66,30.11,10.0,North,9.2,-,N/A,,Clear,360,2012-12-11 07:35:00
1:55 AM,38.3,27.9,66,30.11,10.0,North,9.2,-,N/A,,Clear,360,2012-12-11 07:55:00
2:15 AM,38.5,27.5,65,30.11,10.0,North,8.1,-,N/A,,Clear,10,2012-12-11 08:15:00
2:35 AM,38.3,27.5,65,30.11,10.0,North,5.8,-,N/A,,Clear,10,2012-12-11 08:35:00
2:55 AM,37.6,27.5,67,30.11,10.0,North,5.8,-,N/A,,Clear,10,2012-12-11 08:55:00
3:15 AM,36.5,27.7,70,30.11,10.0,North,6.9,-,N/A,,Clear,360,2012-12-11 09:15:00
3:35 AM,35.8,27.9,73,30.11,10.0,North,5.8,-,N/A,,Clear,360,2012-12-11 09:35:00
3:55 AM,35.1,27.9,75,30.11,10.0,North,6.9,-,N/A,,Clear,10,2012-12-11 09:55:00
4:15 AM,34.9,27.9,76,30.12,10.0,North,5.8,-,N/A,,Clear,360,2012-12-11 10:15:00
4:35 AM,34.5,27.9,77,30.12,10.0,North,5.8,-,N/A,,Clear,360,2012-12-11 10:35:00
4:55 AM,34.2,28.0,78,30.12,10.0,NNE,4.6,-,N/A,,Clear,20,2012-12-11 10:55:00
5:15 AM,33.8,28.0,79,30.12,10.0,North,4.6,-,N/A,,Clear,360,2012-12-11 11:15:00
5:35 AM,33.3,28.0,81,30.12,10.0,North,6.9,-,N/A,,Clear,350,2012-12-11 11:35:00
5:55 AM,33.1,28.2,82,30.12,10.0,North,6.9,-,N/A,,Clear,360,2012-12-11 11:55:00
6:15 AM,33.8,28.2,80,30.13,10.0,North,8.1,-,N/A,,Clear,360,2012-12-11 12:15:00
6:35 AM,34.0,28.2,79,30.14,10.0,North,6.9,-,N/A,,Clear,360,2012-12-11 12:35:00
6:55 AM,33.6,28.0,80,30.13,10.0,North,5.8,-,N/A,,Clear,360,2012-12-11 12:55:00
7:15 AM,33.4,28.2,81,30.14,10.0,North,6.9,-,N/A,,Clear,360,2012-12-11 13:15:00
7:35 AM,35.1,28.8,78,30.14,10.0,North,9.2,-,N/A,,Clear,360,2012-12-11 13:35:00
7:55 AM,36.5,28.9,74,30.14,10.0,North,8.1,-,N/A,,Clear,360,2012-12-11 13:55:00
8:15 AM,37.6,28.9,71,30.14,10.0,NNE,6.9,-,N/A,,Clear,20,2012-12-11 14:15:00
8:35 AM,39.0,28.6,66,30.15,10.0,NNE,8.1,-,N/A,,Clear,20,2012-12-11 14:35:00
8:55 AM,40.5,29.1,64,30.16,10.0,NNE,6.9,-,N/A,,Clear,20,2012-12-11 14:55:00
9:15 AM,42.1,28.6,59,30.17,10.0,NNE,9.2,-,N/A,,Clear,20,2012-12-11 15:15:00
9:35 AM,41.0,28.4,61,30.17,10.0,NNE,9.2,-,N/A,,Clear,30,2012-12-11 15:35:00
9:55 AM,43.9,28.9,56,30.18,10.0,NNE,4.6,-,N/A,,Clear,30,2012-12-11 15:55:00
10:15 AM,47.7,29.1,49,30.17,10.0,NE,6.9,-,N/A,,Clear,50,2012-12-11 16:15:00
10:35 AM,48.9,29.1,46,30.16,10.0,North,8.1,-,N/A,,Clear,10,2012-12-11 16:35:00
10:55 AM,47.5,28.9,49,30.17,10.0,NNE,5.8,-,N/A,,Clear,20,2012-12-11 16:55:00
11:15 AM,48.4,29.1,47,30.16,10.0,North,5.8,-,N/A,,Clear,10,2012-12-11 17:15:00
11:35 AM,51.3,28.2,41,30.16,10.0,ENE,8.1,-,N/A,,Clear,70,2012-12-11 17:35:00
11:55 AM,53.1,28.4,39,30.16,10.0,NNE,3.5,-,N/A,,Clear,20,2012-12-11 17:55:00
12:15 PM,54.7,27.7,35,30.15,10.0,North,6.9,-,N/A,,Clear,10,2012-12-11 18:15:00
12:35 PM,56.1,26.6,32,30.14,10.0,NNE,6.9,-,N/A,,Clear,20,2012-12-11 18:35:00
12:55 PM,56.7,24.8,29,30.14,10.0,NNE,6.9,-,N/A,,Clear,30,2012-12-11 18:55:00
1:15 PM,57.2,25.2,29,30.12,10.0,North,6.9,-,N/A,,Clear,360,2012-12-11 19:15:00
1:35 PM,57.0,25.5,30,30.11,10.0,NNW,6.9,-,N/A,,Clear,340,2012-12-11 19:35:00
1:55 PM,55.6,25.9,32,30.11,10.0,NNW,9.2,-,N/A,,Clear,340,2012-12-11 19:55:00
2:15 PM,55.0,26.6,33,30.11,10.0,NNW,9.2,-,N/A,,Clear,340,2012-12-11 20:15:00
2:35 PM,55.0,25.5,32,30.11,10.0,NE,4.6,-,N/A,,Scattered Clouds,40,2012-12-11 20:35:00
2:55 PM,54.9,26.4,33,30.11,10.0,NNE,3.5,-,N/A,,Clear,30,2012-12-11 20:55:00
3:15 PM,54.0,26.4,35,30.11,10.0,NE,3.5,-,N/A,,Mostly Cloudy,40,2012-12-11 21:15:00
3:35 PM,54.1,26.8,35,30.11,10.0,Calm,Calm,-,N/A,,Scattered Clouds,0,2012-12-11 21:35:00
3:55 PM,54.5,26.6,34,30.10,10.0,NE,4.6,-,N/A,,Clear,40,2012-12-11 21:55:00
4:15 PM,54.0,27.0,35,30.11,10.0,Calm,Calm,-,N/A,,Scattered Clouds,0,2012-12-11 22:15:00
4:35 PM,51.8,28.4,41,30.11,10.0,Calm,Calm,-,N/A,,Scattered Clouds,0,2012-12-11 22:35:00
4:55 PM,52.7,28.0,39,30.11,10.0,North,3.5,-,N/A,,Clear,360,2012-12-11 22:55:00
5:15 PM,50.9,26.4,39,30.12,10.0,North,3.5,-,N/A,,Clear,360,2012-12-11 23:15:00
5:35 PM,49.3,28.4,45,30.12,10.0,Calm,Calm,-,N/A,,Clear,0,2012-12-11 23:35:00
5:55 PM,48.4,29.7,48,30.13,10.0,North,3.5,-,N/A,,Clear,350,2012-12-11 23:55:00
6:15 PM,48.4,28.8,47,30.13,10.0,Calm,Calm,-,N/A,,Clear,0,2012-12-12 00:15:00
6:35 PM,48.2,28.4,46,30.14,10.0,Calm,Calm,-,N/A,,Mostly Cloudy,0,2012-12-12 00:35:00
6:55 PM,47.5,31.1,53,30.15,10.0,Calm,Calm,-,N/A,,Overcast,0,2012-12-12 00:55:00
7:15 PM,47.1,34.3,61,30.15,10.0,Calm,Calm,-,N/A,,Overcast,0,2012-12-12 01:15:00
7:35 PM,46.4,35.6,66,30.16,10.0,Calm,Calm,-,N/A,,Mostly Cloudy,0,2012-12-12 01:35:00
7:55 PM,47.1,35.1,63,30.16,10.0,Calm,Calm,-,N/A,,Scattered Clouds,0,2012-12-12 01:55:00
8:15 PM,46.6,33.3,60,30.17,10.0,Calm,Calm,-,N/A,,Clear,0,2012-12-12 02:15:00
8:35 PM,45.9,32.2,59,30.18,10.0,Calm,Calm,-,N/A,,Clear,0,2012-12-12 02:35:00
8:55 PM,45.5,33.1,62,30.18,10.0,Calm,Calm,-,N/A,,Clear,0,2012-12-12 02:55:00
9:15 PM,45.3,35.6,69,30.19,10.0,Calm,Calm,-,N/A,,Scattered Clouds,0,2012-12-12 03:15:00
9:35 PM,45.5,33.4,63,30.20,10.0,Calm,Calm,-,N/A,,Overcast,0,2012-12-12 03:35:00
9:55 PM,45.1,37.0,73,30.20,10.0,Calm,Calm,-,N/A,,Overcast,0,2012-12-12 03:55:00
10:15 PM,44.6,38.1,78,30.21,10.0,Calm,Calm,-,N/A,,Mostly Cloudy,0,2012-12-12 04:15:00
10:35 PM,44.2,36.1,73,30.22,10.0,Calm,Calm,-,N/A,,Mostly Cloudy,0,2012-12-12 04:35:00
10:55 PM,44.6,34.0,66,30.22,10.0,Calm,Calm,-,N/A,,Scattered Clouds,0,2012-12-12 04:55:00
11:15 PM,43.9,33.4,67,30.23,10.0,Calm,Calm,-,N/A,,Clear,0,2012-12-12 05:15:00
11:35 PM,42.4,33.6,71,30.23,10.0,Calm,Calm,-,N/A,,Scattered Clouds,0,2012-12-12 05:35:00
11:55 PM,39.4,33.4,79,30.22,10.0,Calm,Calm,-,N/A,,Scattered Clouds,0,2012-12-12 05:55:00